PREAS SWMW-SBMN

Flight info

Callsign PREAS
Flight time 1h 0m
Altitude 2500
Route 0308S05809W 0307S05828W 0313S05909W 0312S05939W/N0155A015 0305S05954W
Aircraft BE33/L-SCG/S

Departure

Time 2026-04-30 13:50
Airport Maués Airport (SWMW)

Arrival

Time 2026-04-30 14:50
Airport Ponta Pelada Airport / Manaus Air Base (SBMN)
Time Latitude Longitude Altitude Speed Heading
2026-04-30 13:30 -3.37459 -57.72414 167 ft 0 kts 92°
2026-04-30 13:45 -3.37461 -57.72411 168 ft 2 kts 143°
2026-04-30 13:45 -3.37465 -57.72419 170 ft 0 kts 304°
2026-04-30 13:47 -3.37472 -57.72428 165 ft 4 kts 214°
2026-04-30 13:47 -3.37516 -57.72439 168 ft 10 kts 183°
2026-04-30 13:48 -3.37598 -57.72428 170 ft 14 kts 165°
2026-04-30 13:48 -3.37693 -57.72410 170 ft 11 kts 164°
2026-04-30 13:48 -3.37737 -57.72412 170 ft 7 kts 305°
2026-04-30 13:48 -3.37698 -57.72422 170 ft 0 kts 353°
2026-04-30 13:49 -3.37625 -57.72430 168 ft 32 kts 353°
2026-04-30 13:49 -3.37265 -57.72473 169 ft 72 kts 353°
2026-04-30 13:50 -3.36646 -57.72546 253 ft 100 kts 355°
2026-04-30 13:50 -3.35008 -57.72731 686 ft 136 kts 354°
2026-04-30 13:50 -3.34127 -57.72840 1237 ft 120 kts 355°
2026-04-30 13:51 -3.33345 -57.72943 1791 ft 107 kts 356°
2026-04-30 13:51 -3.32760 -57.73239 2331 ft 92 kts 295°
2026-04-30 13:51 -3.32454 -57.73864 2515 ft 119 kts 298°
2026-04-30 13:51 -3.32034 -57.74710 2518 ft 150 kts 297°
2026-04-30 13:52 -3.31547 -57.75705 2528 ft 167 kts 297°
2026-04-30 13:52 -3.31020 -57.76775 2538 ft 175 kts 297°
2026-04-30 13:52 -3.30471 -57.77864 2537 ft 174 kts 297°
2026-04-30 13:52 -3.29928 -57.78934 2538 ft 171 kts 297°
2026-04-30 13:53 -3.29396 -57.79987 2535 ft 168 kts 297°
2026-04-30 13:53 -3.28877 -57.81027 2537 ft 166 kts 297°
2026-04-30 13:53 -3.28363 -57.82060 2537 ft 165 kts 297°
2026-04-30 13:53 -3.27857 -57.83095 2537 ft 166 kts 296°
2026-04-30 13:54 -3.27355 -57.84136 2531 ft 166 kts 296°
2026-04-30 13:54 -3.26850 -57.85177 2532 ft 166 kts 296°
2026-04-30 13:54 -3.26344 -57.86217 2531 ft 166 kts 296°
2026-04-30 13:54 -3.25838 -57.87248 2533 ft 165 kts 296°
2026-04-30 13:55 -3.25331 -57.88282 2538 ft 166 kts 296°
2026-04-30 13:55 -3.24817 -57.89334 2526 ft 169 kts 296°
2026-04-30 13:55 -3.24312 -57.90369 2529 ft 167 kts 296°
2026-04-30 13:55 -3.23805 -57.91419 2524 ft 165 kts 296°
2026-04-30 13:56 -3.23308 -57.92433 2525 ft 163 kts 296°
2026-04-30 13:56 -3.22809 -57.93451 2519 ft 163 kts 296°
2026-04-30 13:56 -3.22308 -57.94463 2525 ft 163 kts 296°
2026-04-30 13:56 -3.21817 -57.95466 2519 ft 163 kts 296°
2026-04-30 13:57 -3.21315 -57.96488 2518 ft 164 kts 296°
2026-04-30 13:57 -3.20811 -57.97509 2516 ft 163 kts 296°
2026-04-30 13:57 -3.20314 -57.98532 2521 ft 164 kts 296°
2026-04-30 13:57 -3.19815 -57.99558 2520 ft 165 kts 296°
2026-04-30 13:58 -3.19348 -58.00604 2519 ft 164 kts 292°
2026-04-30 13:58 -3.18433 -58.02717 2520 ft 167 kts 294°
2026-04-30 13:58 -3.17953 -58.03770 2523 ft 166 kts 293°
2026-04-30 13:59 -3.17493 -58.04821 2529 ft 165 kts 293°
2026-04-30 13:59 -3.17034 -58.05880 2525 ft 166 kts 293°
2026-04-30 13:59 -3.16566 -58.06930 2527 ft 165 kts 294°
2026-04-30 13:59 -3.16100 -58.07973 2522 ft 163 kts 294°
2026-04-30 14:00 -3.15639 -58.09011 2523 ft 164 kts 294°
2026-04-30 14:00 -3.14739 -58.11093 2522 ft 162 kts 293°
2026-04-30 14:00 -3.14295 -58.12120 2528 ft 161 kts 293°
2026-04-30 14:01 -3.13847 -58.13153 2533 ft 163 kts 293°
2026-04-30 14:01 -3.13382 -58.14190 2525 ft 163 kts 293°
2026-04-30 14:01 -3.12965 -58.15236 2522 ft 161 kts 281°
2026-04-30 14:01 -3.12844 -58.16349 2526 ft 161 kts 273°
2026-04-30 14:02 -3.12751 -58.17462 2523 ft 160 kts 273°
2026-04-30 14:02 -3.12663 -58.18567 2528 ft 160 kts 274°
2026-04-30 14:02 -3.12586 -58.19678 2521 ft 158 kts 271°
2026-04-30 14:02 -3.12528 -58.20782 2522 ft 160 kts 272°
2026-04-30 14:03 -3.12481 -58.21892 2523 ft 160 kts 271°
2026-04-30 14:03 -3.12429 -58.23008 2527 ft 161 kts 271°
2026-04-30 14:03 -3.12377 -58.24135 2522 ft 162 kts 271°
2026-04-30 14:03 -3.12342 -58.25258 2529 ft 163 kts 270°
2026-04-30 14:04 -3.12319 -58.26391 2528 ft 162 kts 269°
2026-04-30 14:04 -3.12328 -58.27523 2525 ft 163 kts 268°
2026-04-30 14:04 -3.12310 -58.28652 2531 ft 164 kts 271°
2026-04-30 14:04 -3.12283 -58.29796 2521 ft 164 kts 270°
2026-04-30 14:05 -3.12224 -58.30930 2524 ft 162 kts 271°
2026-04-30 14:05 -3.12157 -58.32059 2526 ft 163 kts 271°
2026-04-30 14:05 -3.12097 -58.33188 2542 ft 162 kts 271°
2026-04-30 14:05 -3.12032 -58.34328 2521 ft 163 kts 271°
2026-04-30 14:06 -3.11989 -58.35456 2515 ft 162 kts 269°
2026-04-30 14:06 -3.11908 -58.37661 2521 ft 159 kts 270°
2026-04-30 14:07 -3.11819 -58.39858 2525 ft 160 kts 271°
2026-04-30 14:07 -3.11773 -58.40967 2524 ft 160 kts 271°
2026-04-30 14:07 -3.11734 -58.42074 2521 ft 159 kts 270°
2026-04-30 14:08 -3.11670 -58.43984 2521 ft 166 kts 270°
2026-04-30 14:08 -3.11611 -58.45503 2526 ft 167 kts 270°
2026-04-30 14:08 -3.11720 -58.47787 2523 ft 164 kts 260°
2026-04-30 14:09 -3.11864 -58.48914 2522 ft 162 kts 261°
2026-04-30 14:09 -3.12018 -58.50025 2515 ft 161 kts 260°
2026-04-30 14:09 -3.12263 -58.51851 2521 ft 158 kts 260°
2026-04-30 14:10 -3.12409 -58.52946 2517 ft 159 kts 259°
2026-04-30 14:10 -3.12540 -58.54044 2521 ft 159 kts 261°
2026-04-30 14:10 -3.12666 -58.55145 2519 ft 159 kts 261°
2026-04-30 14:10 -3.12797 -58.56243 2520 ft 159 kts 261°
2026-04-30 14:11 -3.12944 -58.57334 2523 ft 158 kts 260°
2026-04-30 14:11 -3.13089 -58.58419 2522 ft 156 kts 260°
2026-04-30 14:11 -3.13223 -58.59496 2527 ft 157 kts 260°
2026-04-30 14:11 -3.13362 -58.60596 2524 ft 166 kts 261°
2026-04-30 14:12 -3.13514 -58.61733 2515 ft 165 kts 261°
2026-04-30 14:12 -3.13669 -58.62856 2519 ft 161 kts 261°
2026-04-30 14:12 -3.13822 -58.63967 2518 ft 161 kts 260°
2026-04-30 14:12 -3.13961 -58.65076 2515 ft 161 kts 260°
2026-04-30 14:13 -3.14100 -58.66190 2522 ft 162 kts 261°
2026-04-30 14:13 -3.14240 -58.67304 2523 ft 161 kts 261°
2026-04-30 14:13 -3.14386 -58.68414 2522 ft 161 kts 259°
2026-04-30 14:13 -3.14515 -58.69528 2522 ft 161 kts 261°
2026-04-30 14:14 -3.14656 -58.70643 2521 ft 161 kts 260°
2026-04-30 14:14 -3.14787 -58.71754 2523 ft 161 kts 261°
2026-04-30 14:14 -3.14911 -58.72862 2521 ft 159 kts 261°
2026-04-30 14:14 -3.15036 -58.73967 2522 ft 161 kts 260°
2026-04-30 14:15 -3.15182 -58.75064 2519 ft 159 kts 257°
2026-04-30 14:15 -3.15418 -58.76136 2521 ft 156 kts 254°
2026-04-30 14:15 -3.15684 -58.77190 2519 ft 154 kts 255°
2026-04-30 14:15 -3.15948 -58.78225 2527 ft 155 kts 255°
2026-04-30 14:16 -3.16183 -58.79278 2529 ft 156 kts 254°
2026-04-30 14:16 -3.16404 -58.80348 2530 ft 158 kts 256°
2026-04-30 14:16 -3.16627 -58.81426 2528 ft 159 kts 256°
2026-04-30 14:16 -3.16857 -58.82509 2528 ft 159 kts 256°
2026-04-30 14:17 -3.17095 -58.83591 2528 ft 159 kts 256°
2026-04-30 14:17 -3.17338 -58.84675 2531 ft 160 kts 255°
2026-04-30 14:17 -3.17575 -58.85750 2534 ft 162 kts 255°
2026-04-30 14:17 -3.17802 -58.86851 2530 ft 160 kts 256°
2026-04-30 14:18 -3.18029 -58.87943 2532 ft 162 kts 256°
2026-04-30 14:18 -3.18255 -58.89044 2527 ft 161 kts 256°
2026-04-30 14:18 -3.18707 -58.91220 2523 ft 156 kts 255°
2026-04-30 14:19 -3.19151 -58.93348 2521 ft 156 kts 256°
2026-04-30 14:19 -3.19367 -58.94414 2529 ft 157 kts 255°
2026-04-30 14:19 -3.19560 -58.95494 2528 ft 158 kts 257°
2026-04-30 14:20 -3.19735 -58.96574 2527 ft 158 kts 259°
2026-04-30 14:20 -3.19912 -58.97662 2526 ft 159 kts 258°
2026-04-30 14:20 -3.20257 -58.99859 2527 ft 160 kts 258°
2026-04-30 14:21 -3.20439 -59.00956 2529 ft 161 kts 259°
2026-04-30 14:21 -3.20630 -59.02076 2509 ft 166 kts 258°
2026-04-30 14:21 -3.21000 -59.04348 2512 ft 163 kts 258°
2026-04-30 14:22 -3.21185 -59.05465 2516 ft 163 kts 258°
2026-04-30 14:22 -3.21549 -59.07666 2512 ft 159 kts 258°
2026-04-30 14:22 -3.21723 -59.08756 2513 ft 158 kts 259°
2026-04-30 14:23 -3.22076 -59.10919 2519 ft 158 kts 258°
2026-04-30 14:23 -3.22322 -59.13088 2525 ft 160 kts 271°
2026-04-30 14:24 -3.22102 -59.15334 2524 ft 163 kts 273°
2026-04-30 14:24 -3.21996 -59.16468 2517 ft 163 kts 274°
2026-04-30 14:25 -3.21804 -59.18723 2517 ft 162 kts 274°
2026-04-30 14:25 -3.21612 -59.20962 2522 ft 161 kts 274°
2026-04-30 14:26 -3.21414 -59.23213 2524 ft 163 kts 272°
2026-04-30 14:26 -3.21334 -59.24349 2526 ft 164 kts 271°
2026-04-30 14:26 -3.21175 -59.26628 2518 ft 162 kts 272°
2026-04-30 14:27 -3.21091 -59.27749 2516 ft 162 kts 272°
2026-04-30 14:27 -3.21011 -59.28863 2521 ft 160 kts 271°
2026-04-30 14:27 -3.20928 -59.29977 2513 ft 160 kts 271°
2026-04-30 14:28 -3.20778 -59.32179 2512 ft 159 kts 271°
2026-04-30 14:28 -3.20710 -59.33280 2515 ft 159 kts 272°
2026-04-30 14:28 -3.20643 -59.34383 2513 ft 159 kts 272°
2026-04-30 14:28 -3.20574 -59.35483 2517 ft 159 kts 271°
2026-04-30 14:29 -3.20451 -59.37679 2513 ft 158 kts 271°
2026-04-30 14:29 -3.20352 -59.39527 2516 ft 160 kts 272°
2026-04-30 14:30 -3.20137 -59.43256 2516 ft 163 kts 272°
2026-04-30 14:31 -3.19985 -59.45535 2418 ft 168 kts 271°
2026-04-30 14:31 -3.19832 -59.47912 2179 ft 173 kts 273°
2026-04-30 14:31 -3.19713 -59.49113 2063 ft 174 kts 274°
2026-04-30 14:32 -3.19438 -59.51553 1825 ft 178 kts 275°
2026-04-30 14:32 -3.19308 -59.52777 1698 ft 177 kts 274°
2026-04-30 14:32 -3.19233 -59.53991 1582 ft 174 kts 271°
2026-04-30 14:33 -3.19182 -59.55183 1525 ft 168 kts 271°
2026-04-30 14:33 -3.19094 -59.57453 1518 ft 161 kts 271°
2026-04-30 14:33 -3.19054 -59.58573 1526 ft 162 kts 270°
2026-04-30 14:34 -3.19012 -59.59708 1524 ft 164 kts 271°
2026-04-30 14:34 -3.18960 -59.60850 1521 ft 165 kts 272°
2026-04-30 14:34 -3.18899 -59.61999 1519 ft 164 kts 273°
2026-04-30 14:34 -3.18847 -59.63138 1519 ft 163 kts 274°
2026-04-30 14:35 -3.17562 -59.64904 1513 ft 161 kts 318°
2026-04-30 14:35 -3.16753 -59.65666 1514 ft 158 kts 318°
2026-04-30 14:35 -3.15960 -59.66417 1513 ft 156 kts 318°
2026-04-30 14:36 -3.15175 -59.67169 1512 ft 156 kts 318°
2026-04-30 14:36 -3.14390 -59.67913 1511 ft 155 kts 318°
2026-04-30 14:36 -3.13634 -59.68687 1511 ft 156 kts 315°
2026-04-30 14:36 -3.12879 -59.69477 1512 ft 155 kts 315°
2026-04-30 14:37 -3.12145 -59.70244 1510 ft 155 kts 315°
2026-04-30 14:37 -3.11402 -59.71026 1510 ft 155 kts 315°
2026-04-30 14:37 -3.10663 -59.71810 1509 ft 155 kts 315°
2026-04-30 14:37 -3.09924 -59.72597 1509 ft 155 kts 314°
2026-04-30 14:38 -3.09184 -59.73378 1509 ft 154 kts 315°
2026-04-30 14:38 -3.08445 -59.74151 1508 ft 153 kts 315°
2026-04-30 14:38 -3.07706 -59.74919 1508 ft 153 kts 315°
2026-04-30 14:38 -3.06964 -59.75684 1510 ft 153 kts 315°
2026-04-30 14:39 -3.06223 -59.76442 1511 ft 152 kts 315°
2026-04-30 14:39 -3.05484 -59.77197 1509 ft 151 kts 315°
2026-04-30 14:39 -3.04738 -59.77947 1512 ft 155 kts 315°
2026-04-30 14:40 -3.03246 -59.79573 1506 ft 160 kts 299°
2026-04-30 14:40 -3.03162 -59.80637 1505 ft 157 kts 248°
2026-04-30 14:40 -3.03724 -59.81560 1503 ft 155 kts 234°
2026-04-30 14:40 -3.04332 -59.82446 1506 ft 154 kts 233°
2026-04-30 14:41 -3.04946 -59.83322 1509 ft 154 kts 232°
2026-04-30 14:41 -3.05560 -59.84204 1511 ft 154 kts 234°
2026-04-30 14:41 -3.06181 -59.85087 1514 ft 156 kts 233°
2026-04-30 14:41 -3.06807 -59.85974 1516 ft 157 kts 232°
2026-04-30 14:42 -3.07426 -59.86875 1505 ft 156 kts 234°
2026-04-30 14:42 -3.08038 -59.87763 1512 ft 154 kts 233°
2026-04-30 14:42 -3.08656 -59.88648 1516 ft 156 kts 233°
2026-04-30 14:42 -3.09291 -59.89542 1517 ft 159 kts 234°
2026-04-30 14:43 -3.09933 -59.90445 1517 ft 159 kts 232°
2026-04-30 14:43 -3.10569 -59.91373 1505 ft 161 kts 232°
2026-04-30 14:43 -3.11184 -59.92287 1506 ft 156 kts 233°
2026-04-30 14:43 -3.11788 -59.93172 1513 ft 153 kts 232°
2026-04-30 14:44 -3.12161 -59.94157 1509 ft 156 kts 271°
2026-04-30 14:44 -3.11991 -59.95227 1514 ft 156 kts 272°
2026-04-30 14:44 -3.11984 -59.96324 1492 ft 161 kts 269°
2026-04-30 14:44 -3.12014 -59.97450 1367 ft 167 kts 266°
2026-04-30 14:45 -3.12093 -59.98623 1244 ft 167 kts 265°
2026-04-30 14:45 -3.12178 -59.99771 1133 ft 167 kts 263°
2026-04-30 14:45 -3.12285 -60.00929 1017 ft 165 kts 263°
2026-04-30 14:45 -3.12393 -60.02015 1018 ft 150 kts 263°
2026-04-30 14:46 -3.12492 -60.03016 1015 ft 140 kts 263°
2026-04-30 14:46 -3.12585 -60.03973 1011 ft 137 kts 262°
2026-04-30 14:46 -3.12719 -60.04902 1002 ft 133 kts 258°
2026-04-30 14:46 -3.12952 -60.05458 997 ft 127 kts 225°
2026-04-30 14:47 -3.13897 -60.05612 1002 ft 101 kts 162°
2026-04-30 14:47 -3.14546 -60.05425 1001 ft 94 kts 163°
2026-04-30 14:47 -3.15164 -60.05253 1004 ft 91 kts 163°
2026-04-30 14:47 -3.15689 -60.04978 1001 ft 84 kts 117°
2026-04-30 14:48 -3.15595 -60.04440 998 ft 81 kts 70°
2026-04-30 14:48 -3.15402 -60.03923 992 ft 82 kts 73°
2026-04-30 14:48 -3.15352 -60.03351 1031 ft 85 kts 94°
2026-04-30 14:48 -3.15399 -60.02747 1035 ft 88 kts 96°
2026-04-30 14:49 -3.15424 -60.02119 992 ft 96 kts 85°
2026-04-30 14:49 -3.15281 -60.01442 833 ft 98 kts 79°
2026-04-30 14:49 -3.15105 -60.00773 656 ft 98 kts 78°
2026-04-30 14:49 -3.14973 -60.00102 505 ft 100 kts 77°
2026-04-30 14:50 -3.14660 -59.98884 258 ft 62 kts 75°
2026-04-30 14:50 -3.14596 -59.98640 254 ft 5 kts 328°
2026-04-30 14:51 -3.14569 -59.98653 254 ft 0 kts 348°
2026-04-30 14:52 -3.14522 -59.98626 254 ft 7 kts 94°
2026-04-30 14:52 -3.14514 -59.98577 253 ft 8 kts 77°
2026-04-30 14:53 -3.14443 -59.98507 253 ft 10 kts 313°
2026-04-30 14:53 -3.14448 -59.98568 254 ft 7 kts 192°
2026-04-30 14:54 -3.14479 -59.98587 254 ft 3 kts 78°
2026-04-30 14:54 -3.14463 -59.98530 253 ft 7 kts 100°
2026-04-30 14:55 -3.14478 -59.98517 253 ft 0 kts 172°